Location: Großmugl Leeberg
(48.4883°N, 16.2231°E)
Time: 19:59:55
(UTC+01:00)

ISS - Visible Passes

Search period start: 09 December 2018 00:00
Search period end: 19 December 2018 00:00
Orbit: 401 x 408 km, 51.6° (Epoch: 10 December)

Date Brightness Start Highest point End Pass type
(mag) Time Alt. Az. Time Alt. Az. Time Alt. Az.
09 Dec -3.7 16:46:22 10° WNW 16:49:37 61° NNE 16:52:51 10° E visible
09 Dec -2.5 18:22:58 10° WNW 18:25:52 36° SW 18:25:52 36° SW visible
10 Dec -3.3 17:30:40 10° WNW 17:33:54 59° SSW 17:36:18 16° SE visible
10 Dec -0.4 19:08:39 10° WSW 19:09:00 11° WSW 19:09:00 11° WSW visible
11 Dec -3.8 16:38:25 10° WNW 16:41:42 88° SSW 16:44:58 10° ESE visible
11 Dec -1.2 18:15:25 10° W 18:17:50 19° SW 18:19:42 13° S visible
12 Dec -1.9 17:22:50 10° W 17:25:47 31° SW 17:28:41 10° SSE visible
14 Dec -0.7 17:15:23 10° W 17:17:29 16° SW 17:19:34 10° S visible
